XNO23A DTNH-EGGD

Flight info

Callsign XNO23A
Flight time N/A
Altitude 24000
Route VAXAL1C VAXAL A411 TUC/N0463F340 UA725 OSMAR DCT PIRIX DCT INDUM/N0460F360 DCT UPDUT DCT CORSI DCT OMEDA DCT MERLU DCT PIGOS DCT BARSO DCT OKTET DCT GIPNO DCT BULOL DCT IDAVO DCT BAGBI DCT SIZZA DCT LAULY DCT BRY DCT CLM DCT KOPOR DCT KESAX DCT KUNAV T421 ICTAM L179 SAWPE
Aircraft B738/M-SDE2E3FGHIRWXY/LB1

Departure

Time 2026-04-21 09:15
Airport Enfidha - Hammamet International Airport (DTNH)

Arrival

Time N/A
Airport Bristol Airport (EGGD)
Time Latitude Longitude Altitude Speed Heading
2026-04-21 08:33 36.08138 10.43884 17 ft 0 kts 29°
2026-04-21 09:01 36.08130 10.43878 17 ft 4 kts 25°
2026-04-21 09:02 36.08105 10.43868 19 ft 4 kts
2026-04-21 09:02 36.08079 10.43870 20 ft 4 kts 335°
2026-04-21 09:02 36.08058 10.43889 18 ft 4 kts 305°
2026-04-21 09:03 36.08044 10.43941 18 ft 0 kts 269°
2026-04-21 09:08 36.08044 10.43903 21 ft 11 kts 270°
2026-04-21 09:08 36.08017 10.43806 18 ft 13 kts 213°
2026-04-21 09:08 36.07932 10.43794 17 ft 12 kts 179°
2026-04-21 09:08 36.07847 10.43795 17 ft 12 kts 179°
2026-04-21 09:09 36.07767 10.43775 19 ft 12 kts 222°
2026-04-21 09:09 36.07747 10.43667 17 ft 15 kts 270°
2026-04-21 09:09 36.07747 10.43511 18 ft 21 kts 270°
2026-04-21 09:09 36.07748 10.43320 18 ft 23 kts 270°
2026-04-21 09:10 36.07750 10.43128 18 ft 22 kts 271°
2026-04-21 09:10 36.07749 10.42962 19 ft 16 kts 269°
2026-04-21 09:10 36.07750 10.42831 19 ft 15 kts 271°
2026-04-21 09:10 36.07752 10.42705 20 ft 14 kts 270°
2026-04-21 09:11 36.07752 10.42585 20 ft 14 kts 270°
2026-04-21 09:11 36.07752 10.42471 20 ft 13 kts 270°
2026-04-21 09:11 36.07753 10.42359 21 ft 13 kts 270°
2026-04-21 09:11 36.07750 10.42252 21 ft 12 kts 255°
2026-04-21 09:12 36.07703 10.42211 21 ft 0 kts 184°
2026-04-21 09:12 36.07661 10.42208 21 ft 12 kts 183°
2026-04-21 09:13 36.07580 10.42224 22 ft 13 kts 129°
2026-04-21 09:13 36.07578 10.42247 21 ft 2 kts 84°
2026-04-21 09:13 36.07582 10.42268 21 ft 3 kts 79°
2026-04-21 09:13 36.07582 10.42273 21 ft 0 kts 88°
2026-04-21 09:14 36.07582 10.42276 21 ft 3 kts 88°
2026-04-21 09:14 36.07581 10.42545 20 ft 67 kts 90°
2026-04-21 09:15 36.07577 10.43407 18 ft 131 kts 90°
2026-04-21 09:15 36.07567 10.44748 140 ft 173 kts 90°
2026-04-21 09:15 36.07570 10.46244 790 ft 179 kts 87°
2026-04-21 09:15 36.07922 10.47754 1357 ft 190 kts 53°
2026-04-21 09:16 36.08968 10.48733 1948 ft 197 kts 17°
2026-04-21 09:16 36.10410 10.48906 2104 ft 220 kts 350°
2026-04-21 09:16 36.11926 10.48351 2347 ft 238 kts 336°
2026-04-21 09:16 36.13572 10.47550 2430 ft 269 kts 337°
2026-04-21 09:17 36.15360 10.46712 3077 ft 274 kts 336°
2026-04-21 09:17 36.17195 10.46241 4058 ft 272 kts
2026-04-21 09:17 36.19048 10.46805 4823 ft 279 kts 17°
2026-04-21 09:17 36.20898 10.47595 5545 ft 282 kts 14°
2026-04-21 09:18 36.22786 10.48243 6316 ft 282 kts 12°
2026-04-21 09:18 36.24696 10.48859 7028 ft 285 kts 11°
2026-04-21 09:18 36.26616 10.49453 7833 ft 283 kts 10°
2026-04-21 09:18 36.28544 10.49760 8596 ft 278 kts 350°
2026-04-21 09:19 36.30401 10.49178 9357 ft 275 kts 337°
2026-04-21 09:19 36.32164 10.48314 10036 ft 277 kts 335°
2026-04-21 09:19 36.33989 10.47384 10371 ft 293 kts 335°
2026-04-21 09:19 36.35953 10.46401 10540 ft 315 kts 336°
2026-04-21 09:20 36.38054 10.45367 10693 ft 335 kts 336°
2026-04-21 09:20 36.40291 10.44289 10839 ft 354 kts 337°
2026-04-21 09:20 36.42645 10.43178 10974 ft 371 kts 337°
2026-04-21 09:20 36.45098 10.42027 11294 ft 380 kts 337°
2026-04-21 09:21 36.47591 10.40860 11837 ft 383 kts 337°
2026-04-21 09:21 36.50094 10.39686 12416 ft 386 kts 337°
2026-04-21 09:21 36.52618 10.38500 12943 ft 390 kts 337°
2026-04-21 09:21 36.55170 10.37297 13524 ft 393 kts 337°
2026-04-21 09:22 36.57701 10.36102 14091 ft 395 kts 337°
2026-04-21 09:22 36.60286 10.34879 14625 ft 398 kts 336°
2026-04-21 09:22 36.62883 10.33652 15195 ft 400 kts 336°
2026-04-21 09:22 36.65487 10.32418 15767 ft 402 kts 336°
2026-04-21 09:23 36.68111 10.31174 16314 ft 404 kts 336°
2026-04-21 09:23 36.70753 10.29921 16855 ft 407 kts 336°
2026-04-21 09:23 36.73406 10.28662 17378 ft 409 kts 336°
2026-04-21 09:23 36.76076 10.27394 17901 ft 412 kts 336°
2026-04-21 09:24 36.78761 10.26117 18395 ft 414 kts 336°
2026-04-21 09:24 36.81468 10.24830 18829 ft 417 kts 336°
2026-04-21 09:24 36.84188 10.23536 19265 ft 420 kts 336°
2026-04-21 09:24 36.86974 10.22379 19690 ft 424 kts 342°
2026-04-21 09:25 36.89807 10.21469 20126 ft 427 kts 343°
2026-04-21 09:25 36.92712 10.20606 20561 ft 429 kts 344°
2026-04-21 09:25 36.95636 10.19751 20961 ft 432 kts 344°
2026-04-21 09:25 36.98570 10.18880 21349 ft 435 kts 343°
2026-04-21 09:26 37.01516 10.17990 21742 ft 437 kts 343°
2026-04-21 09:26 37.04480 10.17080 22155 ft 439 kts 343°
2026-04-21 09:26 37.07459 10.16156 22501 ft 442 kts 343°
2026-04-21 09:26 37.10459 10.15221 22854 ft 444 kts 343°
2026-04-21 09:27 37.13426 10.14293 23203 ft 446 kts 343°
2026-04-21 09:27 37.16456 10.13345 23566 ft 448 kts 343°
2026-04-21 09:27 37.19494 10.12395 23842 ft 450 kts 343°
2026-04-21 09:27 37.22537 10.11442 24145 ft 452 kts 343°
2026-04-21 09:28 37.25596 10.10484 24441 ft 453 kts 343°
2026-04-21 09:28 37.28672 10.09520 24743 ft 455 kts 343°
2026-04-21 09:28 37.31748 10.08556 25012 ft 457 kts 343°
2026-04-21 09:28 37.34842 10.07584 25286 ft 459 kts 343°
2026-04-21 09:29 37.37949 10.06608 25560 ft 460 kts 343°
2026-04-21 09:29 37.41061 10.05630 25819 ft 462 kts 343°
2026-04-21 09:29 37.44184 10.04649 26079 ft 463 kts 343°
2026-04-21 09:29 37.47311 10.03666 26418 ft 462 kts 343°
2026-04-21 09:30 37.50426 10.02688 26841 ft 460 kts 343°
2026-04-21 09:30 37.53527 10.01713 27288 ft 457 kts 342°
2026-04-21 09:30 37.56602 10.00745 27727 ft 455 kts 342°
2026-04-21 09:30 37.59675 9.99776 28112 ft 454 kts 342°
2026-04-21 09:31 37.62746 9.98806 28478 ft 454 kts 342°
2026-04-21 09:31 37.65764 9.97851 28856 ft 453 kts 342°
2026-04-21 09:31 37.68856 9.96873 29279 ft 451 kts 342°
2026-04-21 09:31 37.71856 9.95924 29695 ft 449 kts 342°
2026-04-21 09:32 37.74894 9.94962 30085 ft 448 kts 342°
2026-04-21 09:32 37.77914 9.94003 30414 ft 447 kts 342°
2026-04-21 09:32 37.80925 9.93042 30792 ft 445 kts 342°
2026-04-21 09:32 37.83914 9.92087 31148 ft 443 kts 342°
2026-04-21 09:33 37.86902 9.91130 31457 ft 442 kts 342°
2026-04-21 09:33 37.89877 9.90176 31760 ft 441 kts 342°
2026-04-21 09:33 37.92847 9.89223 32086 ft 440 kts 342°
2026-04-21 09:33 37.95815 9.88271 32418 ft 438 kts 341°
2026-04-21 09:34 37.98761 9.87325 32730 ft 437 kts 341°
2026-04-21 09:34 38.01709 9.86377 33018 ft 436 kts 341°
2026-04-21 09:34 38.04654 9.85430 33319 ft 435 kts 341°
2026-04-21 09:34 38.07589 9.84485 33636 ft 434 kts 341°
2026-04-21 09:35 38.10474 9.83555 33940 ft 433 kts 341°
2026-04-21 09:35 38.13390 9.82615 34152 ft 433 kts 341°
2026-04-21 09:35 38.16313 9.81671 34323 ft 434 kts 341°
2026-04-21 09:35 38.19241 9.80725 34533 ft 433 kts 341°
2026-04-21 09:36 38.22161 9.79781 34768 ft 432 kts 341°
2026-04-21 09:36 38.25079 9.78838 35006 ft 432 kts 341°
2026-04-21 09:36 38.28001 9.77895 35194 ft 432 kts 341°
2026-04-21 09:36 38.30906 9.76963 35401 ft 432 kts 341°
2026-04-21 09:37 38.33836 9.76023 35608 ft 432 kts 341°
2026-04-21 09:37 38.36751 9.75088 35792 ft 432 kts 341°
2026-04-21 09:37 38.39672 9.74150 35940 ft 432 kts 341°
2026-04-21 09:37 38.42593 9.73209 35965 ft 435 kts 341°
2026-04-21 09:38 38.48451 9.71322 35972 ft 432 kts 341°
2026-04-21 09:38 38.54276 9.69442 35974 ft 430 kts 341°
2026-04-21 09:39 38.60018 9.67585 35976 ft 427 kts 341°
2026-04-21 09:39 38.65768 9.65721 35976 ft 426 kts 341°
2026-04-21 09:40 38.71519 9.63854 35976 ft 426 kts 341°
2026-04-21 09:40 38.77210 9.62003 35967 ft 427 kts 341°
2026-04-21 09:41 38.82007 9.60441 35985 ft 428 kts 341°
2026-04-21 09:41 38.87794 9.58554 35974 ft 430 kts 341°
2026-04-21 09:42 38.93591 9.56639 35984 ft 431 kts 341°
2026-04-21 09:42 38.99398 9.54662 35982 ft 432 kts 340°
2026-04-21 09:43 39.05218 9.52673 35976 ft 433 kts 340°
2026-04-21 09:43 39.11042 9.50684 35972 ft 433 kts 340°
2026-04-21 09:44 39.16869 9.48695 35973 ft 433 kts 340°
2026-04-21 09:44 39.22690 9.46705 35970 ft 433 kts 340°
2026-04-21 09:45 39.28505 9.44714 35957 ft 430 kts 340°
2026-04-21 09:45 39.34270 9.42749 35974 ft 428 kts 340°
2026-04-21 09:46 39.40037 9.40758 35965 ft 429 kts 340°
2026-04-21 09:46 39.45771 9.38780 35982 ft 429 kts 340°
2026-04-21 09:47 39.51552 9.36786 35975 ft 430 kts 340°
2026-04-21 09:47 39.57343 9.34785 35971 ft 430 kts 340°
2026-04-21 09:48 39.63136 9.32781 35972 ft 431 kts 340°
2026-04-21 09:48 39.68939 9.30770 35984 ft 431 kts 340°
2026-04-21 09:49 39.74729 9.28760 35975 ft 431 kts 340°
2026-04-21 09:49 39.80536 9.26741 35969 ft 430 kts 340°
2026-04-21 09:50 39.85341 9.25067 35974 ft 430 kts 340°
2026-04-21 09:50 39.92055 9.22723 35986 ft 430 kts 340°
2026-04-21 09:51 39.97828 9.20704 35982 ft 429 kts 340°
2026-04-21 09:51 40.03600 9.18682 35981 ft 428 kts 340°
2026-04-21 09:52 40.09361 9.16661 35981 ft 428 kts 340°
2026-04-21 09:52 40.15108 9.14641 35986 ft 428 kts 340°
2026-04-21 09:53 40.20862 9.12615 35969 ft 428 kts 340°
2026-04-21 09:53 40.26608 9.10588 35966 ft 427 kts 340°
2026-04-21 09:54 40.32317 9.08571 35981 ft 426 kts 340°
2026-04-21 09:54 40.38081 9.06531 35969 ft 426 kts 340°
2026-04-21 09:55 40.43798 9.04503 35979 ft 426 kts 339°